Terminal Aerodrome Forecast
Issued by NWS Duluth, MN

Home | Current Version | Previous Version | Text Only | Print | Product List | Glossary On
Versions: 1 2 3 4 5 6 7 8 9 10 11 12 13 14
476
FTUS43 KDLH 202107 AAA
TAFINL
TAF AMD
KINL 202107Z 2021/2118 18009KT P6SM SCT060
     FM210400 18005KT P6SM VCTS SCT050CB SCT100
     FM210800 17005KT 4SM -SHRA VCTS BKN025CB OVC040
     FM211000 22008KT 2SM -RA BR VCTS OVC025CB
     FM211400 29008KT P6SM SCT025 BKN150=

USA.gov is the U.S. government's official web portal to all federal, state and local government web resources and services.